Theta_e
329 327 327 327 324 322 321 320 319 318 317 317 316 316 316 316 315 315 316 316 316 316 316 315 314 314 314 314 313 313 313 314 314 313 313 313 313 313 313 313 313 314 316 316 315 316 317 317 316 315 313 312 312 313 312 311 311 310 310 312 312 314 317
328 326 326 325 323 321 319 318 317 316 316 316 315 315 315 315 314 314 314 315 315 314 315 314 312 311 311 311 311 311 312 312 311 311 311 311 311 311 311 312 312 313 315 314 313 313 314 315 315 313 311 311 311 311 310 309 309 309 310 311 311 313 313
326 326 325 323 321 320 318 317 316 315 315 315 314 313 313 313 313 312 312 313 313 313 314 313 312 311 311 311 311 311 311 311 310 311 311 311 311 311 311 311 312 313 313 313 311 311 312 312 312 311 311 311 310 309 309 308 307 308 308 309 310 310 309
325 325 324 322 320 319 317 316 315 314 314 312 311 311 311 311 311 310 311 312 312 312 313 313 312 312 311 312 312 311 311 311 311 311 310 310 310 310 310 311 311 311 311 310 309 309 309 310 310 310 310 309 309 308 307 306 306 306 306 307 308 307 306
324 324 323 321 319 317 316 315 314 313 312 311 309 309 309 309 309 309 310 311 311 311 312 312 311 310 311 311 311 311 310 310 310 310 309 309 309 309 310 309 309 308 308 308 307 307 307 308 308 309 308 307 306 306 306 305 305 304 305 305 305 304 305
324 324 323 321 318 316 315 314 313 312 311 310 309 308 308 308 309 309 309 309 310 310 310 310 308 308 309 310 310 310 309 308 308 308 308 308 308 308 308 307 306 306 307 306 305 305 306 306 307 306 306 305 305 305 304 304 304 304 304 303 303 303 303
322 321 320 319 317 315 314 313 312 311 311 310 309 308 307 307 308 308 308 308 308 308 308 308 307 306 307 308 307 308 308 307 307 307 307 307 307 306 306 305 304 304 305 305 304 305 305 304 304 303 303 303 303 303 303 303 303 303 303 302 302 302 302
319 319 317 316 315 314 313 312 311 310 309 309 308 307 306 306 306 306 307 307 307 306 306 306 306 306 306 306 306 306 307 306 306 306 306 306 306 305 304 304 303 303 304 303 303 303 302 301 301 301 301 301 301 301 302 302 301 301 301 301 301 301 301
317 317 316 314 313 313 312 311 309 308 308 307 307 307 306 306 305 305 305 306 306 306 306 305 305 305 305 305 305 306 306 306 306 306 306 305 306 305 304 303 303 302 303 302 302 301 299 298 299 299 300 300 300 300 300 300 300 300 300 300 300 299 299
316 315 314 313 312 312 311 309 308 308 307 307 307 306 306 305 305 305 305 305 305 305 305 305 304 304 304 304 305 305 305 305 305 305 305 305 305 304 303 303 302 302 302 301 300 299 298 297 298 298 298 299 299 299 299 299 299 299 299 299 299 299 299
314 313 313 312 311 310 309 308 308 308 307 307 306 306 305 305 305 305 304 304 304 305 305 305 305 304 304 304 304 304 305 305 304 304 304 304 304 303 302 302 301 301 300 300 299 298 297 297 297 297 297 298 298 298 298 298 298 298 298 298 298 298 298
313 312 312 311 310 310 309 308 308 308 307 306 306 305 305 304 304 304 303 303 303 304 304 304 305 304 304 304 304 304 304 304 303 303 303 303 303 302 301 301 300 300 299 298 297 297 297 297 297 297 296 297 297 297 297 297 297 298 298 298 298 298 298
312 312 312 311 310 309 308 308 308 307 306 306 305 304 304 303 303 303 302 302 302 302 303 303 304 304 304 304 304 304 304 303 303 303 303 302 302 301 301 300 299 299 297 296 297 297 297 297 297 296 296 296 296 296 297 297 297 297 297 297 297 297 297
311 311 310 309 309 308 307 307 307 306 306 305 305 304 303 303 302 301 301 301 301 301 302 302 303 304 304 304 304 304 304 303 303 303 302 302 301 301 300 299 298 298 297 296 297 297 297 297 296 296 296 296 296 296 296 296 297 297 297 296 296 297 297
310 310 309 309 308 308 307 307 307 306 306 306 305 304 303 302 301 300 299 298 298 299 300 301 303 304 304 304 304 304 303 303 303 302 302 301 301 300 299 299 298 297 297 297 297 297 296 295 295 295 295 295 296 296 296 296 296 296 296 296 296 297 297
310 309 308 307 307 307 307 306 306 306 306 305 304 304 303 302 300 299 298 296 295 296 298 300 303 304 304 304 304 304 303 302 302 302 301 300 300 299 299 298 298 297 297 297 297 296 294 294 294 294 294 295 295 295 295 296 296 296 296 296 296 297 297
308 308 307 307 307 306 306 306 306 305 305 304 304 304 302 301 299 298 297 295 294 295 297 300 303 303 303 304 304 303 303 302 302 301 301 300 299 299 299 298 297 297 297 297 296 294 293 293 294 294 294 294 295 295 295 296 296 296 296 297 297 296 296
307 307 307 307 306 306 306 306 305 305 305 304 303 303 301 300 298 296 294 294 295 296 297 300 302 303 303 303 303 303 303 302 301 301 300 299 299 298 298 298 297 297 297 296 295 293 293 293 293 294 294 295 295 295 295 296 296 296 296 296 296 296 296
307 306 306 306 306 306 305 305 305 305 305 304 303 302 301 301 298 294 293 294 295 296 297 299 301 302 302 303 303 302 302 301 300 300 300 299 298 298 298 298 298 297 296 296 295 294 293 293 293 294 295 295 295 295 295 296 296 296 296 296 296 296 296
306 306 306 305 305 305 305 305 305 305 304 304 303 302 302 301 298 294 293 294 295 296 297 298 300 301 302 302 302 302 301 300 300 300 300 299 298 298 297 298 297 297 296 296 295 294 293 293 293 293 294 295 295 295 295 296 295 295 295 295 295 295 295
306 305 305 305 305 305 305 305 305 304 304 303 302 302 301 301 298 295 293 294 295 296 297 298 299 300 301 301 302 301 301 300 299 299 299 299 298 297 297 297 297 297 296 296 295 294 293 293 293 293 294 295 295 295 295 295 295 295 295 295 295 295 295
305 305 305 305 305 305 305 305 305 305 304 303 302 302 300 298 296 294 293 294 295 296 297 297 298 299 300 301 301 301 301 300 300 299 299 298 298 297 297 297 297 296 296 296 295 294 293 293 293 293 293 294 294 295 295 295 295 295 295 295 295 295 295
304 305 304 304 304 304 304 305 304 304 304 302 302 300 296 294 293 293 293 294 295 296 296 297 297 298 299 300 300 300 300 300 300 298 298 298 298 297 297 297 297 296 296 295 294 293 293 293 293 293 293 294 294 295 295 295 295 295 295 295 294 295 295
304 304 304 304 304 304 304 304 304 304 303 302 302 299 295 292 292 292 292 293 294 295 296 296 297 298 299 299 300 300 300 300 300 298 298 298 298 297 297 297 296 296 295 294 293 293 293 293 293 294 294 294 294 294 294 295 295 295 295 295 294 294 295
304 304 304 304 304 304 304 304 304 304 303 303 302 301 298 294 292 291 292 292 293 294 295 296 297 298 298 299 299 300 299 299 299 298 297 298 298 297 297 296 296 295 294 294 293 293 293 293 293 294 293 294 294 294 294 294 295 295 295 295 294 294 295
304 304 304 304 304 304 304 304 304 304 303 303 302 302 301 298 295 292 291 291 292 292 293 295 296 298 298 298 298 298 299 299 299 299 298 298 298 297 297 296 295 295 294 294 294 293 293 294 294 294 294 294 294 294 294 294 294 294 295 295 294 294 295
304 304 304 304 304 304 304 304 304 303 303 303 302 302 301 301 300 297 293 291 291 291 291 292 295 297 298 298 297 297 297 298 298 298 298 298 298 297 296 296 295 295 294 294 294 294 294 294 294 294 294 294 294 294 294 294 294 294 294 294 294 294 294
303 303 303 303 303 303 303 302 302 302 302 303 302 302 301 301 301 300 298 294 292 292 291 291 292 294 296 297 297 296 296 296 297 298 298 298 298 297 296 296 295 295 295 294 294 294 294 294 294 294 294 294 294 294 294 294 294 294 294 294 294 294 294
303 303 303 302 302 302 302 302 301 301 301 301 302 302 302 301 301 301 300 297 294 293 292 291 290 291 293 295 296 295 294 293 295 297 297 297 297 297 296 296 296 296 295 294 294 294 294 294 294 294 294 294 294 294 294 294 294 294 294 294 294 294 294
302 302 302 302 302 302 302 302 301 301 300 300 300 300 301 301 301 301 299 297 296 295 294 292 291 290 291 292 293 293 292 291 292 295 297 297 297 297 297 297 296 296 294 294 294 294 294 294 294 294 294 294 294 294 294 294 294 294 294 294 294 294 293
302 302 302 302 302 301 301 301 301 301 300 299 297 296 297 298 299 298 297 296 297 297 295 293 291 290 291 291 292 292 292 291 291 294 296 296 296 296 296 296 295 295 294 295 295 294 294 294 294 294 294 293 294 294 294 294 294 293 293 294 293 293 293
302 302 302 301 301 301 301 300 300 300 300 299 298 298 297 297 298 298 298 298 298 297 296 294 292 290 291 292 292 293 293 292 292 293 295 296 296 296 295 295 295 295 295 295 294 294 294 294 294 294 294 294 293 294 294 294 294 293 293 293 293 293 293
302 301 301 301 301 301 301 301 301 300 300 300 300 300 300 299 299 299 299 299 299 298 297 295 293 291 291 292 292 293 293 292 293 294 295 295 295 295 295 294 294 294 294 294 294 294 294 294 294 294 294 294 293 293 294 294 293 293 293 292 292 293 293
301 301 301 301 300 300 300 300 300 300 300 300 300 300 300 300 300 300 300 300 300 299 297 296 294 292 290 291 292 292 293 293 293 294 295 295 295 295 294 294 294 294 294 295 295 294 294 294 294 294 294 294 293 293 294 294 293 292 292 292 292 292 293
301 301 301 301 300 300 300 300 300 300 300 300 300 300 300 300 300 300 300 300 300 299 297 296 295 292 290 290 291 292 293 293 294 294 295 294 295 295 294 294 294 294 295 295 295 294 294 294 294 294 294 294 293 293 293 293 293 292 292 292 292 292 293
301 301 301 301 301 301 300 300 300 300 299 299 300 300 301 300 300 300 300 300 300 299 297 296 295 292 290 290 291 292 293 293 294 294 294 294 294 294 294 294 294 295 295 295 295 294 294 294 294 294 294 294 293 293 293 293 292 292 291 292 292 292 292
301 301 301 301 301 300 300 300 300 299 299 300 301 301 301 301 300 300 300 300 300 299 297 296 294 292 290 290 291 292 293 293 294 294 294 294 294 293 294 294 294 295 295 295 295 294 294 294 294 294 294 294 293 293 293 293 292 291 291 291 291 292 292
Wind_Speed
17 16 13 11 10 10 10 10 10 11 11 12 12 11 10 12 14 11 9 11 14 14 14 17 17 14 14 14 15 15 15 16 18 18 18 17 16 16 18 18 17 17 16 16 14 10 5 6 15 20 24 31 27 20 24 29 30 32 32 30 30 28 27
16 15 13 12 11 11 11 12 11 11 10 10 11 11 9 10 13 13 11 12 14 14 14 17 18 16 17 18 19 20 19 19 19 18 18 18 17 16 17 17 17 17 15 15 18 15 7 4 7 11 22 32 28 23 26 28 30 30 28 28 28 27 27
17 15 13 12 11 11 12 12 12 11 10 9 10 12 11 11 12 14 14 15 16 16 15 16 17 18 19 20 20 20 19 18 18 18 18 17 17 17 17 16 15 16 13 11 15 16 10 7 6 6 14 20 21 26 29 30 31 29 26 26 26 27 30
15 13 13 14 13 13 13 13 13 13 13 13 12 12 13 13 14 16 17 17 18 17 16 16 17 16 17 17 17 18 18 17 17 18 18 18 17 17 19 20 17 17 17 15 17 19 14 9 7 6 11 15 16 23 29 29 28 26 25 25 25 27 29
12 12 13 15 15 15 14 13 13 15 15 15 15 15 15 15 16 18 18 18 18 18 17 17 17 15 14 15 16 16 17 17 17 17 17 19 19 18 21 23 21 21 23 21 20 21 18 16 12 7 11 16 14 18 27 28 25 25 23 23 25 27 27
13 14 15 16 16 16 15 14 13 14 14 15 15 16 16 16 17 19 19 19 18 18 16 17 17 15 14 15 16 16 17 17 16 17 17 18 19 20 22 23 23 23 23 22 21 21 21 20 17 11 13 17 13 16 23 25 25 24 21 22 26 27 26
17 18 18 17 17 17 15 14 14 14 14 14 15 17 16 16 17 18 19 19 18 17 16 16 17 16 15 16 17 17 18 17 16 17 17 17 19 20 21 23 23 23 22 21 21 22 23 22 20 16 15 15 14 16 19 23 25 23 21 26 27 25 27
19 19 19 19 18 17 15 15 15 14 14 15 15 17 17 16 17 17 17 18 18 17 16 15 16 17 16 16 18 18 18 17 16 17 17 17 19 19 20 21 22 22 22 22 22 24 25 24 23 22 18 12 10 11 13 18 22 22 24 29 29 26 28
18 19 20 19 17 16 16 16 15 15 15 16 16 17 17 17 17 17 17 17 17 17 17 16 16 16 17 17 17 18 17 16 16 17 17 17 18 19 19 20 21 21 21 22 22 24 25 26 24 24 21 15 10 8 8 10 13 18 26 30 31 33 33
18 18 19 18 16 16 16 16 16 16 16 16 17 16 17 17 17 16 16 16 16 17 17 17 17 16 16 17 17 18 17 16 16 17 17 16 17 19 20 20 20 21 21 22 23 24 25 26 25 24 22 20 15 9 7 8 8 13 24 29 31 36 39
16 16 17 17 16 16 17 17 17 16 16 16 16 16 16 16 16 16 16 15 15 16 16 17 17 16 16 17 17 17 16 15 16 17 16 16 17 19 20 20 20 22 22 22 23 23 24 25 25 24 23 22 20 14 9 9 9 14 24 29 31 35 39
15 16 17 17 17 17 17 17 17 17 16 16 16 16 15 15 15 16 16 15 14 15 15 15 16 16 16 16 16 16 15 15 16 17 16 16 16 17 19 20 21 21 21 21 21 22 23 24 24 24 24 23 22 20 17 13 9 15 23 26 30 34 37
17 17 17 18 18 18 17 17 17 17 17 16 16 16 15 14 14 14 14 14 13 13 14 13 14 14 15 15 14 14 14 14 15 16 16 16 16 17 18 20 21 20 20 21 21 21 22 23 24 24 24 24 23 22 21 17 11 15 23 24 28 32 33
18 18 18 18 19 18 17 17 17 17 17 16 15 15 15 14 13 13 12 12 12 11 12 12 12 14 15 15 14 13 13 13 14 15 15 16 17 17 18 20 21 19 19 21 22 21 22 24 25 25 24 23 23 22 22 20 15 16 22 25 26 28 29
20 20 20 20 19 19 18 18 17 17 17 16 16 16 16 14 13 13 12 11 10 10 10 11 12 13 15 15 14 13 13 13 14 15 15 16 17 17 18 20 19 17 18 20 21 21 24 26 25 25 24 22 22 22 21 20 19 18 23 27 27 27 28
19 19 20 20 19 18 18 18 18 18 18 16 16 15 14 14 13 12 12 12 11 10 10 11 13 12 13 14 14 13 12 13 14 15 15 15 15 16 17 18 18 16 16 18 20 23 26 27 25 23 23 21 20 21 22 21 20 20 23 26 27 26 28
21 21 20 20 19 19 18 18 18 18 18 17 15 14 13 12 12 12 12 12 12 12 11 11 12 12 12 13 14 13 12 12 13 13 13 13 13 13 15 16 16 15 15 17 21 26 29 28 26 24 22 21 20 20 21 22 21 21 22 23 25 26 27
22 22 21 20 20 20 19 18 18 18 18 18 17 15 13 12 12 13 12 12 14 15 13 11 11 11 12 13 13 12 12 11 12 12 12 13 13 13 13 14 14 14 15 18 22 26 29 28 26 24 22 22 22 21 21 22 21 22 22 22 25 27 27
23 22 22 21 20 20 19 18 18 17 17 18 17 15 14 12 13 14 13 13 15 16 15 13 11 10 11 11 11 13 14 12 11 10 11 12 13 13 14 12 12 14 17 19 20 23 27 27 26 25 23 23 24 23 22 22 22 22 22 23 24 26 27
23 22 22 21 20 20 19 18 18 17 16 16 16 15 13 12 12 14 14 14 15 15 15 14 12 11 11 11 11 12 13 12 10 9 9 10 11 13 13 12 11 14 17 18 19 22 24 25 26 26 25 24 25 25 23 22 23 23 22 22 23 24 25
23 23 22 21 21 21 20 19 18 18 16 16 17 16 14 12 12 14 14 14 14 14 15 15 13 12 11 11 10 10 10 10 10 10 8 9 11 12 12 11 10 13 17 18 18 21 23 24 26 27 26 25 25 26 24 23 23 23 22 22 22 23 23
24 23 22 21 22 21 20 20 19 19 18 19 19 17 14 12 11 13 15 14 14 13 14 14 14 13 11 11 10 9 9 9 9 10 8 8 9 11 11 9 8 11 16 16 18 20 21 22 24 26 27 25 24 25 25 24 24 24 23 21 22 23 23
24 23 22 21 22 21 20 20 20 20 20 20 18 15 14 14 14 16 17 15 13 13 13 13 12 11 10 10 9 9 9 9 9 9 9 7 7 9 10 8 7 10 14 16 19 21 20 21 23 24 25 25 24 25 25 26 26 25 23 21 22 24 22
25 24 24 23 22 21 21 20 20 20 20 19 16 14 15 18 18 18 18 17 15 13 12 11 10 10 9 9 9 8 9 10 9 8 11 8 5 6 9 7 7 11 15 17 20 22 21 21 22 23 24 25 24 24 25 26 27 27 25 23 24 25 23
25 24 24 23 22 22 21 21 21 20 19 18 15 13 14 17 19 19 18 18 16 14 12 10 9 9 10 9 8 8 9 10 9 8 11 10 3 3 8 7 7 13 18 20 21 22 22 23 24 25 26 26 26 26 25 26 28 29 28 26 25 26 26
26 25 24 23 22 22 21 21 21 20 19 18 16 14 12 12 15 17 19 18 17 16 14 11 9 8 9 9 8 8 9 10 10 9 12 13 7 3 5 7 10 16 20 20 22 23 24 25 26 27 28 28 28 27 27 27 27 28 29 28 27 27 29
27 25 25 24 23 23 22 21 20 19 19 18 17 15 12 10 9 12 16 19 19 18 15 13 10 7 8 8 8 9 9 9 9 8 12 15 9 3 4 8 13 19 20 21 23 24 24 27 27 28 29 29 29 29 28 29 29 29 29 28 28 30 32
27 26 26 25 24 23 22 21 20 19 18 18 17 15 13 10 8 7 10 15 19 20 18 15 12 9 8 7 7 9 11 9 7 7 11 15 11 4 5 9 14 20 22 22 22 22 24 27 29 30 31 31 29 29 29 29 30 31 31 30 28 30 32
28 27 26 25 24 23 22 21 20 19 18 17 16 15 14 11 9 7 7 10 15 18 19 18 15 12 9 7 6 9 13 11 8 6 9 14 14 7 6 9 15 21 23 21 21 23 25 29 31 32 33 32 31 30 30 30 31 33 33 29 27 29 33
29 28 27 25 24 23 22 21 20 19 18 17 15 14 14 13 10 7 6 8 11 15 17 18 16 13 11 9 8 11 14 14 12 8 7 12 15 11 8 11 16 20 20 20 23 27 29 30 32 33 33 33 32 31 31 32 33 34 33 28 27 32 37
29 28 27 25 24 23 22 21 19 18 17 16 15 14 14 13 12 9 8 9 9 11 14 16 15 14 13 13 13 13 15 16 14 11 8 9 13 13 11 12 15 16 19 23 28 30 29 31 33 33 33 34 32 30 32 34 35 36 33 30 31 36 40
29 28 26 25 24 22 21 20 18 17 16 15 14 13 12 11 10 8 7 8 8 9 11 13 14 13 12 14 15 14 15 16 15 13 11 10 10 12 12 13 14 17 22 26 29 29 28 29 30 31 33 33 30 30 34 36 36 36 34 32 34 38 41
28 28 26 25 23 22 21 20 18 17 16 15 14 12 9 7 7 6 5 4 5 7 9 11 13 13 12 12 13 14 15 16 15 13 12 10 10 12 14 16 19 22 24 26 27 27 27 27 28 30 31 30 29 32 36 36 34 34 34 33 34 38 41
28 27 26 24 23 22 20 19 18 17 17 17 15 12 9 8 7 6 5 5 4 4 6 9 11 12 12 12 12 13 15 15 13 12 12 11 12 13 16 20 24 24 24 25 25 24 25 26 29 31 30 28 30 33 34 32 32 34 35 34 34 38 40
28 26 25 24 23 21 19 18 18 18 18 16 14 12 11 11 9 7 8 8 6 3 4 6 9 11 11 11 11 11 12 12 11 11 12 13 14 15 18 22 24 24 24 25 23 23 24 25 28 31 28 27 31 34 31 30 32 34 35 34 34 36 39
28 26 25 23 22 20 18 17 16 16 16 14 12 11 12 12 11 10 11 12 10 5 3 4 7 9 11 11 11 10 9 9 8 9 12 13 15 16 20 22 22 22 23 22 21 24 27 26 27 30 28 27 31 33 31 31 32 33 34 34 34 35 38
27 26 24 23 22 21 19 17 16 15 16 15 13 12 12 12 12 11 12 14 12 8 5 3 4 8 10 11 11 9 8 8 7 8 10 12 15 17 20 21 20 20 21 20 19 24 28 27 28 29 28 28 32 33 31 32 33 33 33 33 33 34 37
Wind_Direction
118 116 121 123 119 109 96 86 80 81 83 78 73 72 72 69 62 59 74 78 69 71 72 62 53 49 44 39 38 42 51 51 46 46 43 37 36 31 30 35 35 34 35 35 30 14 352 321 328 338 342 343 346 354 354 351 350 349 350 353 352 353 355
122 121 122 124 122 116 102 90 83 82 84 79 67 64 69 70 64 61 71 77 70 71 73 61 50 47 48 48 50 52 55 54 50 50 49 45 43 37 32 35 34 32 35 38 30 21 16 348 335 336 337 340 341 344 350 349 347 350 352 349 350 353 351
125 123 122 124 124 118 106 96 90 84 80 72 63 63 69 72 69 64 70 77 70 69 74 66 54 51 51 52 54 53 53 52 49 50 50 45 41 36 29 25 21 24 31 31 23 20 17 3 350 331 335 341 334 332 341 346 345 348 350 349 352 352 348
129 127 127 129 127 121 111 103 98 90 81 73 67 68 72 73 72 69 72 76 72 69 72 69 62 58 55 53 55 53 52 51 47 48 48 42 41 37 30 26 25 31 36 31 22 17 14 2 346 332 335 340 330 325 333 341 343 346 347 350 352 349 348
131 135 139 135 130 124 116 110 104 95 88 80 72 70 72 74 75 73 73 75 72 70 69 68 64 64 65 62 60 56 52 51 49 49 48 44 43 38 35 40 45 44 40 33 27 19 11 360 349 341 340 341 334 326 332 338 340 343 346 349 347 346 347
134 139 142 138 133 126 118 112 105 99 94 87 78 74 71 74 77 76 73 73 72 70 70 68 63 63 69 67 62 59 56 53 49 49 49 47 46 41 43 48 47 45 41 32 27 21 15 9 2 355 348 347 339 328 334 339 338 338 342 346 345 344 344
129 131 132 131 128 124 117 111 107 103 99 92 86 80 75 75 79 79 77 75 73 71 71 71 67 63 67 66 61 60 59 55 50 50 50 50 48 44 45 46 44 43 39 32 29 27 24 21 16 7 354 347 343 336 336 339 339 337 336 340 341 341 341
127 127 127 125 122 120 119 116 110 106 103 97 90 85 79 77 79 80 80 77 74 73 71 71 70 65 64 65 62 60 59 55 51 51 51 52 49 45 41 41 42 41 38 35 34 32 28 25 21 13 5 355 345 342 339 338 338 334 331 334 336 338 339
129 128 127 124 119 117 120 118 109 103 100 96 92 87 81 78 77 78 79 78 76 74 70 68 67 65 65 64 61 60 60 57 55 52 51 51 48 49 48 44 45 43 40 38 33 28 26 25 23 17 12 7 352 342 339 338 334 329 331 335 332 331 335
131 129 128 125 120 120 119 115 109 104 99 95 93 89 85 81 78 77 76 77 77 75 71 67 64 63 64 63 59 59 60 60 58 53 52 51 48 52 55 51 49 44 37 33 30 27 25 22 20 16 12 7 359 346 332 335 332 322 328 333 329 326 330
132 128 130 127 122 120 117 114 111 108 103 98 94 92 91 88 83 80 76 76 77 75 72 69 66 62 62 62 59 58 59 61 60 56 54 53 49 52 56 51 47 42 35 31 29 27 23 20 16 11 7 2 357 350 333 326 323 319 323 327 326 325 327
136 133 133 130 125 122 120 118 116 112 110 105 100 97 95 92 88 84 79 77 79 76 75 75 72 67 62 59 58 58 59 59 59 57 54 53 50 52 54 49 45 39 31 29 29 24 18 15 11 6 2 357 353 348 337 325 313 318 323 324 324 324 325
141 140 137 132 127 124 122 121 117 114 112 109 104 100 95 91 88 86 81 80 80 79 78 79 77 73 68 63 58 58 59 58 58 58 56 53 53 54 52 47 43 37 30 28 25 18 13 9 5 1 357 353 350 348 341 331 316 316 322 324 323 323 324
139 136 135 131 128 125 124 122 118 115 113 108 103 100 96 90 86 83 81 77 78 81 81 83 83 76 71 67 62 60 62 60 60 62 59 54 54 53 49 46 41 35 31 27 21 16 10 5 360 357 356 353 351 351 348 339 327 320 323 327 325 322 325
136 134 133 132 130 128 126 124 122 119 115 110 106 102 96 88 82 79 75 70 75 83 85 90 93 82 72 70 66 62 62 60 62 66 64 59 56 52 47 45 40 33 29 25 21 17 9 3 0 358 357 358 354 354 354 345 335 328 326 328 328 327 329
136 135 133 131 130 128 126 125 123 120 115 111 108 102 95 88 81 76 68 62 66 80 93 101 102 88 73 69 68 65 62 60 63 67 67 61 55 51 48 43 36 31 29 27 23 18 10 6 5 2 360 0 356 352 352 345 335 328 325 327 329 330 329
138 137 134 133 132 129 127 125 122 118 114 111 108 102 96 88 81 72 64 61 63 73 91 107 108 93 74 71 73 70 66 62 61 63 65 62 56 53 47 37 34 36 32 28 23 17 13 10 6 3 1 358 353 347 346 344 335 329 323 322 327 328 326
139 138 137 136 132 130 128 127 125 121 116 113 108 102 93 82 72 63 61 67 70 71 80 99 107 93 78 77 78 73 71 68 62 63 67 67 64 56 42 33 40 41 30 26 23 15 11 9 5 2 359 354 348 343 341 342 338 333 327 322 324 325 324
140 139 137 134 131 129 128 128 128 124 119 114 107 99 91 79 64 57 62 75 77 73 75 85 93 87 80 81 78 74 74 69 59 61 71 72 65 52 41 41 47 37 24 22 17 9 8 9 3 360 357 351 346 341 338 340 340 337 333 328 327 327 327
141 139 136 133 131 130 129 129 127 123 121 114 106 100 93 79 61 55 65 77 78 74 76 80 83 82 77 77 78 76 74 69 57 57 74 77 65 54 48 49 46 27 18 16 8 3 6 7 1 358 356 349 344 340 335 336 338 337 335 332 331 331 331
141 139 137 135 133 131 129 128 125 123 120 111 107 104 95 81 65 59 67 76 76 76 77 78 78 77 74 73 75 75 74 72 58 47 68 80 64 56 55 51 38 18 13 10 4 1 4 4 359 357 354 349 344 339 333 330 332 334 332 330 329 330 328
141 141 139 136 135 133 131 129 126 125 122 116 112 107 94 84 72 65 70 76 77 76 75 73 69 68 69 68 68 70 70 73 59 40 56 82 67 54 56 50 27 13 13 10 1 359 3 4 359 354 352 350 344 337 331 326 326 327 327 327 327 326 323
143 142 139 135 134 133 132 131 128 124 122 121 118 109 92 84 79 73 73 75 77 77 73 70 65 62 62 62 67 72 63 62 63 42 36 61 71 53 47 39 16 12 16 12 4 3 4 3 359 353 350 349 344 337 329 323 321 322 321 321 323 323 322
143 141 137 135 135 135 134 134 131 126 123 121 121 112 93 82 77 74 73 73 74 75 71 69 69 68 65 62 64 68 53 48 60 45 24 35 73 50 31 28 22 18 16 12 9 9 7 1 357 352 348 347 346 341 332 324 319 317 317 316 318 320 319
143 141 138 137 137 137 137 134 132 129 127 125 126 122 103 86 77 72 71 71 69 69 70 68 71 73 69 65 62 60 49 43 51 45 23 20 28 22 20 27 29 21 18 14 10 7 4 357 351 347 345 345 345 342 337 330 322 316 313 312 313 316 317
144 142 140 139 138 138 136 134 133 132 131 131 132 131 121 102 84 71 67 67 66 66 65 63 68 74 67 62 59 53 43 35 39 37 17 8 3 12 27 34 32 23 18 15 10 3 357 351 347 345 344 344 343 341 339 337 332 324 317 312 310 312 316
146 144 142 141 140 139 137 135 134 134 134 134 134 134 133 123 102 78 66 64 63 62 60 57 60 71 68 61 57 48 35 24 24 27 19 17 23 50 43 35 30 23 17 13 8 0 352 348 344 342 343 343 342 341 340 339 338 332 324 319 314 313 316
147 145 144 143 141 139 137 134 134 135 135 136 136 135 136 130 119 94 68 60 58 56 55 54 55 63 67 64 57 44 31 19 13 17 25 30 35 34 19 25 24 16 10 8 5 357 350 345 341 339 340 341 341 341 341 341 339 334 329 326 322 319 319
148 146 145 144 142 140 138 135 134 134 133 136 137 136 135 130 121 110 85 64 56 51 49 47 48 54 60 58 53 39 31 26 24 22 28 34 34 15 343 356 4 2 1 2 359 352 346 341 338 337 337 338 340 339 340 342 341 339 335 330 326 325 323
149 147 147 146 146 145 143 140 139 138 136 137 138 139 140 137 133 127 107 81 62 52 48 43 40 44 51 52 47 40 33 29 29 29 29 34 32 20 345 340 350 353 353 351 346 342 341 338 337 337 335 335 337 337 339 341 341 341 340 333 328 330 327
150 148 149 150 148 146 144 142 143 144 142 140 135 131 131 133 134 130 110 92 75 59 50 44 38 36 45 47 43 40 34 27 27 29 28 32 33 25 0 344 346 345 339 336 336 337 339 338 338 338 337 335 335 336 337 338 339 341 341 336 332 332 330
152 151 151 150 148 147 146 147 148 149 150 149 142 133 128 127 128 126 110 93 81 67 54 46 37 33 39 42 39 37 30 25 26 29 29 29 27 18 2 345 339 335 331 332 335 338 341 341 340 340 340 338 335 335 337 338 339 341 340 336 334 332 332
153 152 152 151 151 149 148 149 153 155 157 157 154 148 146 144 142 145 139 116 91 71 57 48 38 32 33 35 34 33 29 26 27 29 30 26 11 3 356 346 340 339 338 338 340 344 350 353 350 347 347 347 344 340 340 341 343 343 340 335 334 333 332
154 153 153 152 151 150 151 153 157 160 160 159 158 158 165 172 172 173 173 165 144 96 64 50 38 29 27 27 28 29 27 27 27 24 23 16 3 355 348 342 342 344 344 344 345 351 359 2 0 356 354 353 352 349 347 346 346 346 341 336 334 334 334
155 154 154 153 151 153 155 157 159 161 158 156 160 172 183 190 193 188 181 184 185 147 82 54 35 26 22 21 24 26 26 28 28 19 11 3 356 350 343 340 342 344 345 346 352 359 2 0 359 358 354 352 354 354 351 349 349 347 342 338 336 335 335
155 155 156 156 155 154 153 153 155 159 160 160 171 187 193 197 201 194 186 189 193 176 122 68 33 23 20 20 20 22 30 37 32 15 4 358 351 346 344 343 343 344 347 352 360 6 4 359 356 355 353 352 355 356 355 354 352 348 344 341 338 336 336
156 157 157 156 154 152 153 153 156 160 164 168 175 183 188 196 201 195 188 187 186 176 153 112 42 20 17 18 21 31 47 53 39 17 5 358 351 348 348 348 347 351 355 359 5 6 4 0 358 357 356 356 357 359 359 357 353 349 346 343 339 337 337